Observations for Trim Patrick St
| Time | AQI | Temp °C | Hum % | Pres Pa | CO μg/m³ | H₂S μg/m³ | NO μg/m³ | NO₂ μg/m³ | O₃ μg/m³ | SO₂ μg/m³ | PM1 μg/m³ | PM2.5 μg/m³ | PM10 μg/m³ |
|---|---|---|---|---|---|---|---|---|---|---|---|---|---|
| Saturday 8 August 2026 | |||||||||||||
| 23:04 | 2 | 20.1 | 62 | 75,792 | 0 | 8.26 | 1.24 | 32.29 | 40.75 | 2.92 | 3.71 | 7.86 | 8.64 |
| 23:03 | 2 | 20.1 | 62 | 75,752 | 0 | 7.84 | 1.24 | 25.79 | 36.93 | 3.35 | 4.57 | 7.87 | 8.66 |
| 23:02 | 2 | 20.1 | 63 | 75,701 | 0 | 7.95 | 1.29 | 19.07 | 36.23 | 3.35 | 2.86 | 7.07 | 7.77 |
| 23:01 | 2 | 20.1 | 63 | 75,660 | 0 | 7.37 | 1.26 | 33.03 | 36.15 | 2.86 | 2.86 | 6.34 | 6.97 |
| 23:00 | 2 | 20.2 | 63 | 75,599 | 0 | 6.73 | 1.25 | 14.66 | 38.4 | 3.54 | 2.86 | 7.07 | 7.78 |
| 22:59 | 2 | 20.2 | 60 | 75,568 | 0 | 10.81 | 1.23 | 27.37 | 36.03 | 3.28 | 2.86 | 7.28 | 8.01 |
| 22:58 | 2 | 20.2 | 62 | 75,501 | 0 | 10.34 | 1.33 | 38.58 | 47.9 | 3.3 | 2.86 | 7.17 | 7.88 |
| 22:57 | 2 | 20.2 | 62 | 75,440 | 0 | 7.02 | 1.5 | 29.71 | 36.49 | 3.2 | 3.71 | 7.87 | 8.66 |
| 22:56 | 2 | 20.2 | 62 | 75,424 | 0 | 5.5 | 1.65 | 18.5 | 36.22 | 3.44 | 2.86 | 6.39 | 7.03 |
| 22:55 | 2 | 20.2 | 61 | 75,434 | 0 | 6.58 | 1.42 | 22.82 | 36.59 | 3.27 | 2.86 | 7.2 | 7.92 |
| 22:54 | 2 | 20.2 | 61 | 75,448 | 0 | 7.73 | 1.31 | 26.93 | 36.36 | 3.31 | 2.86 | 7.19 | 7.91 |
| 22:53 | 2 | 20.3 | 61 | 75,430 | 0 | 7.86 | 1.28 | 25.94 | 39.23 | 3.4 | 2.86 | 7.22 | 7.94 |
| 22:52 | 2 | 20.3 | 62 | 75,432 | 0 | 6.71 | 1.25 | 19.85 | 36.73 | 3.58 | 2.86 | 7.12 | 7.83 |
| 22:51 | 2 | 20.3 | 62 | 75,418 | 0 | 6.78 | 1.27 | 27.14 | 38.55 | 3.4 | 2.86 | 7.17 | 7.88 |
| 22:50 | 2 | 20.3 | 61 | 75,395 | 0 | 8.23 | 1.6 | 18.44 | 31.13 | 3.72 | 5.43 | 9.4 | 10.34 |
| 22:48 | 2 | 20.3 | 60 | 75,353 | 0 | 6.71 | 1.32 | 23 | 30.02 | 3.36 | 4.57 | 9.49 | 10.44 |
| 22:47 | 2 | 20.3 | 62 | 75,342 | 0 | 7.52 | 1.33 | 25.09 | 36.95 | 3.77 | 3.71 | 8.61 | 9.47 |
| 22:46 | 2 | 20.4 | 62 | 75,330 | 0 | 7.76 | 1.28 | 16.83 | 38.81 | 3.97 | 4.57 | 8.59 | 9.45 |
| 22:45 | 2 | 20.4 | 62 | 75,326 | 0 | 9.49 | 1.25 | 34.96 | 35.84 | 3.74 | 2.86 | 7.84 | 8.62 |
| 22:42 | 2 | 20.4 | 62 | 75,350 | 0 | 9.76 | 1.28 | 26.93 | 37.31 | 3.9 | 4.57 | 10.1 | 11.11 |